time_stamp(utc),avg(mph),gust(mph),direction(deg),12m_air_temp(f),sonic_u(cm/s),sonic_v(cm/s),sonic_w(cm/s),pressure,2m_air_temp(f),pyranometer(W/m^2)
"2020-08-27 00:03:00+00",7.5,8.5,,76.5,-325,48,9,1013.05,75.5,0
"2020-08-27 00:08:00+00",6.9,7.9,,76.6,-303,82,3,1013.06,75.3,0
"2020-08-27 00:13:00+00",6.2,7.2,,76.4,-303,-20,37,1013.07,75.1,0
"2020-08-27 00:18:00+00",7.8,9.8,,76.3,-373,-29,26,1013.15,75.1,0
"2020-08-27 00:23:00+00",9.3,10.3,,76.3,-280,-20,13,1013.23,75,0
"2020-08-27 00:28:00+00",8.7,9.7,,76.3,-241,-12,15,1013.37,75,0
"2020-08-27 00:33:00+00",7.6,9.6,,76.1,-251,-9,10,1013.52,75.1,0
"2020-08-27 00:38:00+00",9.7,10.7,,76.1,-416,10,-45,1013.58,75.1,0
"2020-08-27 00:43:00+00",10.1,12.1,,76,-425,35,-33,1013.63,75.1,0
"2020-08-27 00:48:00+00",10.0,12.0,,76,-419,35,-28,1013.6,75.1,0
"2020-08-27 00:53:00+00",11.2,12.2,,76,-481,34,-24,1013.58,75.2,0
"2020-08-27 00:58:00+00",10.6,12.6,,75.9,-459,67,-32,1013.7,75.2,0
"2020-08-27 01:03:00+00",12.4,14.4,,76.9,-549,86,-20,1013.63,75.3,0
"2020-08-27 01:08:00+00",11.7,14.7,,76.5,-507,-33,-43,1013.75,75.5,0
"2020-08-27 01:13:00+00",10.4,12.4,,75.9,-449,-20,-47,1013.67,75.4,0
"2020-08-27 01:18:00+00",9.9,10.9,,75.8,-421,-14,-50,1013.71,75.2,0
"2020-08-27 01:23:00+00",9.4,10.4,,76,-399,39,-43,1013.74,75,0
"2020-08-27 01:28:00+00",8.7,9.7,,76.1,-364,45,-47,1013.68,74.9,0
"2020-08-27 01:33:00+00",8.2,9.2,,76.2,-335,29,-41,1013.66,74.8,0
"2020-08-27 01:38:00+00",7.6,7.6,,76,-293,-20,-61,1013.58,74.8,0
"2020-08-27 01:43:00+00",6.4,7.4,,75.9,-212,-78,-53,1013.53,74.6,0
"2020-08-27 01:48:00+00",7.8,8.8,,75.9,-268,-125,-80,1013.53,74.4,0
"2020-08-27 01:53:00+00",6.6,6.6,,76.1,-248,-132,-38,1013.46,74.3,0
"2020-08-27 01:58:00+00",6.2,6.2,,76.1,-215,-67,-49,1013.39,74.2,0
"2020-08-27 02:03:00+00",6.3,7.3,,76.1,-210,-98,-62,1013.23,74.2,0
"2020-08-27 02:08:00+00",6.3,7.3,,76.1,-220,-131,-77,1013.26,74.2,0
"2020-08-27 02:13:00+00",6.2,7.2,,76,-218,-103,-64,1013.27,74.1,0
"2020-08-27 02:18:00+00",5.1,6.1,,75.8,-174,-108,-57,1013.24,74.1,0
"2020-08-27 02:23:00+00",5.0,6.0,,75.7,-162,-104,-60,1013.16,74.1,0
"2020-08-27 02:28:00+00",7.4,8.4,,75.8,-199,-174,-71,1013.07,74,0
"2020-08-27 02:33:00+00",7.4,8.4,,75.7,-186,-189,-68,1013.09,73.8,0
"2020-08-27 02:38:00+00",5.8,6.8,,75.4,-146,-203,-61,1013.02,73.7,0
"2020-08-27 02:43:00+00",5.3,6.3,,74.9,-135,-216,-59,1013.09,73.5,0
"2020-08-27 02:48:00+00",8.1,9.1,,74.7,-193,-266,-79,1013.08,73.3,0
"2020-08-27 02:53:00+00",5.6,6.6,,74.4,-67,-262,-57,1013.11,73.3,0
"2020-08-27 02:58:00+00",5.7,5.7,,74.1,-116,-271,-80,1013.14,73.1,0
"2020-08-27 03:03:00+00",6.0,7.0,,74.1,-122,-282,-85,1013.16,73,0
"2020-08-27 03:08:00+00",6.8,8.8,,74,-206,-229,-49,1013.21,72.9,0
"2020-08-27 03:13:00+00",6.9,7.9,,74.1,-196,-180,-59,1013.23,72.9,0
"2020-08-27 03:18:00+00",7.1,7.1,,74.4,-199,-178,-65,1013.21,72.9,0
"2020-08-27 03:23:00+00",6.8,7.8,,74.7,-199,-214,-61,1013.12,72.8,0
"2020-08-27 03:28:00+00",5.7,6.7,,74.8,-165,-227,-67,1013.17,72.7,0
"2020-08-27 03:33:00+00",5.9,6.9,,74.7,-162,-270,-78,1013.09,72.7,0
"2020-08-27 03:38:00+00",6.4,7.4,,74.5,-114,-291,-72,1013.02,72.7,0
"2020-08-27 03:43:00+00",6.5,7.5,,74.5,-92,-292,-77,1012.86,72.6,0
"2020-08-27 03:48:00+00",6.8,7.8,,74.3,-68,-284,-74,1012.8,72.5,0
"2020-08-27 03:53:00+00",7.4,8.4,,74,-47,-300,-69,1012.82,72.4,0
"2020-08-27 03:58:00+00",7.3,9.3,,73.8,-37,-296,-68,1012.67,72.3,0
"2020-08-27 04:03:00+00",6.8,7.8,,73.7,-30,-294,-64,1012.59,72.3,0
"2020-08-27 04:08:00+00",6.4,7.4,,73.7,-39,-266,-55,1012.75,72.4,0
"2020-08-27 04:13:00+00",5.7,6.7,,73.7,-6,-224,-53,1012.66,72.3,0
"2020-08-27 04:18:00+00",5.9,7.9,,73.7,-53,-253,-30,1012.71,72.4,0
"2020-08-27 04:23:00+00",5.8,7.8,,73.6,12,-239,-33,1012.77,72.4,0
"2020-08-27 04:28:00+00",5.4,6.4,,73.7,21,-225,-50,1012.77,72.6,0
"2020-08-27 04:33:00+00",5.7,7.7,,73.9,-8,-224,-46,1012.72,72.8,0
"2020-08-27 04:38:00+00",6.3,7.3,,73.8,-7,-261,-56,1012.77,72.8,0
"2020-08-27 04:43:00+00",6.1,8.1,,73.6,-34,-263,-38,1012.81,72.7,0
"2020-08-27 04:48:00+00",5.9,7.9,,73.7,10,-237,-50,1012.71,72.8,0
"2020-08-27 04:53:00+00",7.2,9.2,,73.6,-9,-294,-65,1012.63,72.9,0
"2020-08-27 04:58:00+00",6.5,7.5,,73.7,17,-259,-54,1012.49,73,0
"2020-08-27 05:03:00+00",7.0,9.0,,73.8,-18,-281,-55,1012.37,73.1,0
"2020-08-27 05:08:00+00",6.2,9.2,,73.8,-22,-245,-54,1012.24,73.1,0
"2020-08-27 05:13:00+00",6.0,7.0,,73.8,-48,-245,-62,1012.17,73.1,0
"2020-08-27 05:18:00+00",6.9,8.9,,74,-54,-280,-71,1012.07,73.2,0
"2020-08-27 05:23:00+00",7.0,8.0,,74.2,-59,-282,-71,1012.06,73.3,0
"2020-08-27 05:28:00+00",7.1,9.1,,74.4,-106,-294,-78,1011.97,73.4,0
"2020-08-27 05:33:00+00",7.2,8.2,,74.5,-144,-348,-48,1011.86,73.6,0
"2020-08-27 05:38:00+00",9.0,12.0,,74.8,-233,-370,-37,1011.71,73.8,0
"2020-08-27 05:43:00+00",9.1,11.1,,75.2,-311,-238,-56,1011.74,74.2,0
"2020-08-27 05:48:00+00",10.2,13.2,,75.4,-363,-287,-58,1011.8,74.4,0
"2020-08-27 05:53:00+00",12.8,15.8,,75.6,-517,-314,-61,1011.69,74.5,0
"2020-08-27 05:58:00+00",15.3,17.3,,75.7,-614,-305,-72,1011.5,74.7,0
"2020-08-27 06:03:00+00",14.3,16.3,,75.4,-571,-230,-44,1011.45,74.7,0
"2020-08-27 06:08:00+00",14.5,17.5,,75.2,-594,-242,-51,1011.31,74.7,0
"2020-08-27 06:13:00+00",11.4,14.4,,74.8,-452,-269,-78,1011.19,74.7,0
"2020-08-27 06:18:00+00",10.7,11.7,,74.5,-413,-209,-64,1011.24,74.5,0
"2020-08-27 06:23:00+00",11.4,13.4,,74.3,-458,-255,-57,1011.11,74.4,0
"2020-08-27 06:28:00+00",12.1,14.1,,74.3,-488,-188,-56,1011.17,74.3,0
"2020-08-27 06:33:00+00",10.4,12.4,,74.4,-410,-100,-40,1011.25,74.3,0
"2020-08-27 06:38:00+00",10.9,11.9,,74.7,-463,-51,-56,1011.25,74.3,0
"2020-08-27 06:43:00+00",12.9,14.9,,74.9,-574,-26,-23,1011.16,74.4,0
"2020-08-27 06:48:00+00",11.1,13.1,,74.8,-480,-58,-38,1011.15,74.5,0
"2020-08-27 06:53:00+00",11.4,13.4,,74.7,-496,-57,-35,1011.07,74.4,0
"2020-08-27 06:58:00+00",12.3,15.3,,74.6,-541,-29,-53,1010.97,74.4,0
"2020-08-27 07:03:00+00",11.6,13.6,,74.6,-503,-76,-42,1010.9,74.3,0
"2020-08-27 07:08:00+00",11.2,13.2,,74.7,-460,-74,-37,1010.73,74.3,0
"2020-08-27 07:13:00+00",13.2,15.2,,74.7,-583,-43,-43,1010.64,74.2,0
"2020-08-27 07:18:00+00",12.8,14.8,,74.6,-555,-47,-29,1010.69,74.2,0
"2020-08-27 07:23:00+00",13.6,14.6,,74.6,-597,-26,-46,1010.68,74.1,0
"2020-08-27 07:28:00+00",9.5,10.5,,74.5,-394,-43,-35,1010.62,74.1,0
"2020-08-27 07:33:00+00",11.1,12.1,,74.5,-465,-25,-47,1010.64,74.1,0
"2020-08-27 07:38:00+00",11.3,12.3,,74.7,-481,15,-50,1010.65,74,0
"2020-08-27 07:43:00+00",13.8,15.8,,74.9,-616,-34,-32,1010.57,74.1,0
"2020-08-27 07:48:00+00",15.5,18.5,,74.9,-674,-39,-45,1010.57,74.2,0
"2020-08-27 07:53:00+00",15.2,19.2,,74.9,-683,-41,-45,1010.51,74.3,0
"2020-08-27 07:58:00+00",14.9,16.9,,74.8,-668,-15,-35,1010.53,74.3,0
"2020-08-27 08:03:00+00",15.1,18.1,,74.7,-679,-36,-2,1010.46,74.3,0
"2020-08-27 08:08:00+00",15.7,17.7,,74.7,-713,-57,-39,1010.44,74.3,0
"2020-08-27 08:13:00+00",15.8,19.8,,74.6,-690,-72,15,1010.45,74.2,0
"2020-08-27 08:18:00+00",16.3,18.3,,74.7,-736,-71,-41,1010.47,74.2,0
"2020-08-27 08:23:00+00",16.1,19.1,,74.7,-717,-96,-39,1010.43,74.2,0
"2020-08-27 08:28:00+00",13.3,15.3,,74.7,-601,-30,-32,1010.45,74.2,0
"2020-08-27 08:33:00+00",13.8,16.8,,74.8,-620,-84,-20,1010.36,74.2,0
"2020-08-27 08:38:00+00",13.6,17.6,,74.9,-600,-66,-49,1010.32,74.3,0
"2020-08-27 08:43:00+00",14.2,17.2,,74.9,-632,-11,-25,1010.34,74.3,0
"2020-08-27 08:48:00+00",13.2,15.2,,74.9,-577,-56,-45,1010.34,74.3,0
"2020-08-27 08:53:00+00",14.5,17.5,,75.1,-634,-42,-38,1010.41,74.3,0
"2020-08-27 08:58:00+00",14.0,16.0,,75,-601,-124,-22,1010.45,74.3,0
"2020-08-27 09:03:00+00",13.3,16.3,,74.9,-587,-88,-9,1010.43,74.4,0
"2020-08-27 09:08:00+00",15.0,19.0,,75,-642,-121,-18,1010.4,74.4,0
"2020-08-27 09:13:00+00",14.0,16.0,,74.9,-616,-85,-11,1010.43,74.4,0
"2020-08-27 09:18:00+00",14.5,18.5,,74.9,-654,-112,-22,1010.43,74.3,0
"2020-08-27 09:23:00+00",14.9,17.9,,74.9,-664,-127,-14,1010.37,74.3,0
"2020-08-27 09:28:00+00",15.2,18.2,,74.9,-678,-98,-16,1010.39,74.3,0
"2020-08-27 09:33:00+00",14.8,16.8,,74.9,-670,-42,-23,1010.55,74.3,0
"2020-08-27 09:38:00+00",15.7,17.7,,74.9,-695,-92,-43,1010.5,74.3,0
"2020-08-27 09:43:00+00",14.1,17.1,,74.7,-642,-35,-32,1010.47,74.4,0
"2020-08-27 09:48:00+00",15.6,18.6,,74.7,-714,-35,-40,1010.44,74.3,0
"2020-08-27 09:53:00+00",14.2,17.2,,74.6,-653,13,-40,1010.44,74.2,0
"2020-08-27 09:58:00+00",13.9,15.9,,74.7,-610,33,-47,1010.41,74.2,0
"2020-08-27 10:03:00+00",11.9,12.9,,74.6,-545,33,-34,1010.49,74.2,0
"2020-08-27 10:08:00+00",12.0,15.0,,74.6,-540,50,-47,1010.56,74.1,0
"2020-08-27 10:13:00+00",11.6,13.6,,74.5,-515,4,-42,1010.65,74.1,0
"2020-08-27 10:18:00+00",12.3,13.3,,74.5,-549,-3,-28,1010.62,74,0
"2020-08-27 10:23:00+00",12.2,13.2,,74.7,-548,9,-28,1010.72,74,0
"2020-08-27 10:28:00+00",12.2,14.2,,74.8,-551,-13,-9,1010.75,74.1,0
"2020-08-27 10:33:00+00",12.5,14.5,,74.9,-566,-25,22,1010.82,74.1,0
"2020-08-27 10:38:00+00",11.6,13.6,,74.9,-500,-35,28,1010.91,74.2,0
"2020-08-27 10:43:00+00",12.5,15.5,,74.9,-548,-47,24,1011,74.3,0
"2020-08-27 10:48:00+00",13.0,15.0,,74.9,-579,-79,3,1010.99,74.3,0
"2020-08-27 10:53:00+00",11.9,13.9,,74.9,-522,-98,23,1011.03,74.4,0
"2020-08-27 10:58:00+00",13.2,15.2,,75,-568,-105,24,1011.05,74.4,0
"2020-08-27 11:03:00+00",14.4,16.4,,75.3,-609,-154,29,1010.96,74.5,0
"2020-08-27 11:08:00+00",13.1,17.1,,75.3,-553,-130,20,1010.85,74.7,0
"2020-08-27 11:13:00+00",13.1,15.1,,75.4,-556,-105,55,1010.78,74.8,0
"2020-08-27 11:18:00+00",14.9,17.9,,75.6,-668,-99,22,1010.88,74.9,0
"2020-08-27 11:23:00+00",15.5,19.5,,75.7,-671,-98,10,1010.83,75.2,0
"2020-08-27 11:28:00+00",13.9,16.9,,75.9,-599,-93,30,1010.78,75.5,0
"2020-08-27 11:33:00+00",16.2,18.2,,76.1,-708,-117,50,1010.83,75.7,0
"2020-08-27 11:38:00+00",16.7,19.7,,76.3,-733,-74,36,1010.84,76,0
"2020-08-27 11:43:00+00",16.3,19.3,,76.6,-739,-97,16,1010.86,76.2,0
"2020-08-27 11:48:00+00",15.2,18.2,,76.7,-668,1,43,1010.9,76.5,0
"2020-08-27 11:53:00+00",15.3,16.3,,77,-681,-67,14,1010.77,76.8,0
"2020-08-27 11:58:00+00",15.7,18.7,,77.1,-688,-79,36,1010.61,77.1,0
"2020-08-27 12:03:00+00",17.1,21.1,,77.4,-757,-63,23,1010.55,77.5,0
"2020-08-27 12:08:00+00",17.0,20.0,,77.6,-758,-67,36,1010.59,77.8,0
"2020-08-27 12:13:00+00",18.0,21.0,,77.8,-816,-94,14,1010.64,78.2,0
"2020-08-27 12:18:00+00",15.3,17.3,,78.1,-680,-23,47,1010.44,78.6,0
"2020-08-27 12:23:00+00",15.1,18.1,,78.2,-687,-17,29,1010.47,78.8,0
"2020-08-27 12:28:00+00",16.4,19.4,,78.3,-733,14,35,1010.53,79,0
"2020-08-27 12:33:00+00",16.2,19.2,,78.4,-743,44,31,1010.55,79.2,0
"2020-08-27 12:38:00+00",17.4,19.4,,78.5,-788,98,21,1010.57,79.3,0
"2020-08-27 12:43:00+00",16.3,19.3,,78.7,-711,138,47,1010.6,79.6,0
"2020-08-27 12:48:00+00",15.4,17.4,,78.9,-691,80,26,1010.56,79.8,0
"2020-08-27 12:53:00+00",15.1,17.1,,79,-675,98,38,1010.46,80.1,0
"2020-08-27 12:58:00+00",15.8,17.8,,79.2,-695,84,43,1010.53,80.3,0
"2020-08-27 13:03:00+00",17.3,21.3,,79.3,-787,110,38,1010.46,80.6,0
"2020-08-27 13:08:00+00",19.2,22.2,,79.5,-862,136,17,1010.41,80.7,0
"2020-08-27 13:13:00+00",15.6,17.6,,79.5,-711,108,20,1010.41,80.9,0
"2020-08-27 13:18:00+00",16.4,17.4,,79.8,-743,53,28,1010.4,81.2,0
"2020-08-27 13:23:00+00",15.5,19.5,,80,-702,35,45,1010.42,81.5,0
"2020-08-27 13:28:00+00",16.1,19.1,,80.3,-727,60,50,1010.41,82,0
"2020-08-27 13:33:00+00",16.3,19.3,,80.4,-731,113,61,1010.4,82.2,0
"2020-08-27 13:38:00+00",15.4,17.4,,80.7,-697,65,51,1010.4,82.4,0
"2020-08-27 13:43:00+00",17.0,19.0,,80.9,-772,21,20,1010.36,82.7,0
"2020-08-27 13:48:00+00",16.9,19.9,,81,-782,41,18,1010.42,83,0
"2020-08-27 13:53:00+00",17.2,19.2,,81.3,-777,18,28,1010.46,83.2,0
"2020-08-27 13:58:00+00",16.9,19.9,,81.4,-772,18,14,1010.45,83.4,0
"2020-08-27 14:03:00+00",16.9,20.9,,81.4,-782,98,41,1010.43,83.5,0
"2020-08-27 14:08:00+00",19.1,21.1,,81.7,-854,30,29,1010.34,83.7,0
"2020-08-27 14:13:00+00",16.4,19.4,,82.1,-746,73,28,1010.43,84.1,0
"2020-08-27 14:18:00+00",17.9,19.9,,82.4,-804,-66,45,1010.37,84.5,0
"2020-08-27 14:23:00+00",17.1,19.1,,82.6,-751,-108,35,1010.36,85,0
"2020-08-27 14:28:00+00",15.4,17.4,,82.8,-696,-65,50,1010.34,85.7,0
"2020-08-27 14:33:00+00",15.8,17.8,,83.2,-700,-100,34,1010.35,86.2,0
"2020-08-27 14:38:00+00",19.6,22.6,,83.1,-873,110,59,1010.18,86.2,0
"2020-08-27 14:43:00+00",19.4,21.4,,83.3,-867,45,32,1010.23,86,0
"2020-08-27 14:48:00+00",20.4,25.4,,83.7,-939,69,84,1010.13,86.1,0
"2020-08-27 14:53:00+00",20.6,22.6,,83.8,-921,-15,20,1010.01,86.1,0
"2020-08-27 14:58:00+00",18.6,22.6,,84.3,-827,-2,47,1010.02,86.5,0
"2020-08-27 15:03:00+00",17.6,19.6,,84.6,-780,70,80,1009.89,87,0
"2020-08-27 15:08:00+00",17.9,19.9,,84.9,-799,-8,57,1009.86,87.3,0
"2020-08-27 15:13:00+00",18.6,21.6,,85,-826,-27,48,1009.8,87.6,0
"2020-08-27 15:18:00+00",20.3,26.3,,85.3,-904,-118,50,1009.71,87.8,0
"2020-08-27 15:23:00+00",20.6,25.6,,85.1,-940,53,33,1009.67,87.9,0
"2020-08-27 15:28:00+00",21.6,24.6,,85.4,-991,57,26,1009.67,87.8,0
"2020-08-27 15:33:00+00",17.2,20.2,,85.5,-761,40,67,1009.6,88,0
"2020-08-27 15:38:00+00",16.8,18.8,,85.5,-749,58,37,1009.46,88.1,0
"2020-08-27 15:43:00+00",18.7,20.7,,85.9,-847,12,31,1009.3,88.2,0
"2020-08-27 15:48:00+00",21.7,25.7,,86.2,-962,-34,30,1009.31,88.4,0
"2020-08-27 15:53:00+00",22.4,25.4,,86.2,-1010,52,39,1009.17,88.6,0
"2020-08-27 15:58:00+00",22.4,25.4,,86.4,-1004,-25,18,1009.07,88.7,0
"2020-08-27 16:03:00+00",20.0,23.0,,86.7,-871,-84,65,1009.14,88.9,0
"2020-08-27 16:08:00+00",21.0,24.0,,86.4,-947,109,43,1009,88.8,0
"2020-08-27 16:13:00+00",21.1,24.1,,86.5,-934,20,18,1008.81,88.5,0
"2020-08-27 16:18:00+00",18.3,22.3,,86.4,-815,46,62,1008.78,88.5,0
"2020-08-27 16:23:00+00",19.6,22.6,,86.8,-878,20,69,1008.69,88.8,0
"2020-08-27 16:28:00+00",20.2,24.2,,87,-889,-168,84,1008.54,89.2,0
"2020-08-27 16:33:00+00",20.4,25.4,,86.9,-930,-36,44,1008.37,89.2,0
"2020-08-27 16:38:00+00",18.7,22.7,,86.7,-818,-27,38,1008.26,88.9,0
"2020-08-27 16:43:00+00",22.4,26.4,,86.9,-992,-145,30,1008.2,89.3,0
"2020-08-27 16:48:00+00",20.5,24.5,,87.2,-894,-153,48,1008.07,89.8,0
"2020-08-27 16:53:00+00",18.0,24.0,,87.4,-805,0,73,1008.09,90.2,0
"2020-08-27 16:58:00+00",21.8,24.8,,87.1,-945,-155,20,1008.02,90.3,0
"2020-08-27 17:03:00+00",15.9,19.9,,87.2,-732,8,32,1007.88,89.8,0
"2020-08-27 17:08:00+00",20.9,23.9,,87.2,-948,121,34,1007.81,89.9,0
"2020-08-27 17:13:00+00",18.4,21.4,,87.5,-809,-32,51,1007.88,89.7,0
"2020-08-27 17:18:00+00",22.9,25.9,,87.7,-1035,-81,22,1007.77,89.9,0
"2020-08-27 17:23:00+00",21.7,23.7,,87,-988,97,53,1007.91,89.5,0
"2020-08-27 17:28:00+00",22.8,25.8,,87.2,-998,208,75,1007.78,89,0
"2020-08-27 17:33:00+00",21.3,24.3,,87.7,-968,44,57,1007.67,89,0
"2020-08-27 17:38:00+00",20.1,24.1,,87.6,-903,-43,30,1007.63,88.9,0
"2020-08-27 17:43:00+00",22.1,28.1,,87.7,-1002,-83,23,1007.73,89,0
"2020-08-27 17:48:00+00",25.1,28.1,,87.6,-1127,99,36,1007.62,89,0
"2020-08-27 17:53:00+00",19.5,25.5,,87.9,-874,31,83,1007.57,88.9,0
"2020-08-27 17:58:00+00",24.1,29.1,,88.5,-1034,-231,54,1007.46,89.8,0
"2020-08-27 18:03:00+00",24.7,29.7,,88.1,-1100,-106,39,1007.44,90.1,0
"2020-08-27 18:08:00+00",19.9,22.9,,87.9,-902,56,51,1007.37,90,0
"2020-08-27 18:13:00+00",23.7,27.7,,87.8,-1085,22,48,1007.31,89.6,0
"2020-08-27 18:18:00+00",21.6,24.6,,88.3,-959,-108,34,1007.26,90.1,0
"2020-08-27 18:23:00+00",25.0,28.0,,88,-1104,-96,27,1007.15,89.9,0
"2020-08-27 18:28:00+00",20.9,25.9,,88.5,-912,-68,62,1007.05,90.1,0
"2020-08-27 18:33:00+00",22.3,25.3,,88.5,-962,-160,14,1006.98,90.4,0
"2020-08-27 18:38:00+00",20.6,24.6,,88.5,-872,-224,50,1006.82,90.6,0
"2020-08-27 18:43:00+00",20.4,25.4,,88.4,-890,-182,36,1006.78,91.1,0
"2020-08-27 18:48:00+00",25.2,29.2,,88.3,-1028,-405,19,1006.64,91.1,0
"2020-08-27 18:53:00+00",18.9,20.9,,88,-793,-270,41,1006.66,90.9,0
"2020-08-27 18:58:00+00",21.6,24.6,,88.7,-960,-21,54,1006.53,91.1,0
"2020-08-27 19:03:00+00",24.3,29.3,,88.7,-1031,-229,42,1006.51,91,0
"2020-08-27 19:08:00+00",24.1,28.1,,88.5,-1034,-193,43,1006.43,91,0
"2020-08-27 19:13:00+00",21.3,27.3,,88.4,-931,-149,36,1006.41,91,0
"2020-08-27 19:18:00+00",24.4,30.4,,88.7,-1086,-104,26,1006.33,90.9,0
"2020-08-27 19:23:00+00",23.7,27.7,,88.7,-1029,-210,33,1006.28,90.8,0
"2020-08-27 19:28:00+00",22.0,27.0,,88.7,-926,-250,53,1006.2,90.9,0
"2020-08-27 19:33:00+00",19.9,22.9,,88.5,-848,-209,26,1006.26,91.3,0
"2020-08-27 19:38:00+00",21.9,24.9,,88.2,-928,-256,15,1006.15,91.4,0
"2020-08-27 19:43:00+00",19.9,25.9,,88.4,-867,-173,36,1006.07,91.3,0
"2020-08-27 19:48:00+00",22.4,26.4,,88.4,-970,-206,54,1006.05,91.3,0
"2020-08-27 19:53:00+00",22.8,26.8,,88.1,-973,-226,27,1006.11,91.3,0
"2020-08-27 19:58:00+00",26.6,30.6,,88.1,-1129,-289,36,1006.13,91.1,0
"2020-08-27 20:03:00+00",26.5,32.5,,88,-1074,-428,48,1005.99,90.8,0
"2020-08-27 20:08:00+00",27.3,31.3,,88.1,-1130,-365,20,1005.86,90.9,0
"2020-08-27 20:13:00+00",24.0,26.0,,88.2,-977,-353,26,1005.86,90.9,0
"2020-08-27 20:18:00+00",27.9,31.9,,88.1,-1175,-323,38,1005.76,91,0
"2020-08-27 20:23:00+00",25.7,28.7,,88.4,-1095,-281,39,1005.71,91.1,0
"2020-08-27 20:28:00+00",28.1,30.1,,88.3,-1159,-388,24,1005.67,91.1,0
"2020-08-27 20:33:00+00",25.1,29.1,,88.2,-1057,-357,22,1005.7,91.1,0
"2020-08-27 20:38:00+00",22.4,26.4,,88.3,-959,-450,60,1005.8,91.3,0
"2020-08-27 20:43:00+00",21.5,25.5,,88.1,-885,-273,40,1005.64,91.2,0
"2020-08-27 20:48:00+00",20.4,24.4,,88.2,-858,-359,58,1005.6,91.2,0
"2020-08-27 20:53:00+00",25.1,29.1,,88.2,-1065,-253,38,1005.48,91.4,0
"2020-08-27 20:58:00+00",19.6,22.6,,88.4,-814,-277,61,1005.52,91.3,0
"2020-08-27 21:03:00+00",19.9,25.9,,87.9,-837,-265,14,1005.5,91.5,0
"2020-08-27 21:08:00+00",19.1,22.1,,87.9,-802,-258,29,1005.52,91.5,0
"2020-08-27 21:13:00+00",21.8,25.8,,88,-894,-354,7,1005.56,91.5,0
"2020-08-27 21:18:00+00",16.3,20.3,,88.1,-681,-282,40,1005.49,91.4,0
"2020-08-27 21:23:00+00",22.4,26.4,,88.1,-934,-563,31,1005.36,91.1,0
"2020-08-27 21:28:00+00",19.4,25.4,,88,-802,-350,74,1005.35,90.8,0
"2020-08-27 21:33:00+00",21.8,26.8,,87.9,-916,-314,32,1005.34,90.8,0
"2020-08-27 21:38:00+00",19.1,22.1,,87.7,-795,-320,11,1005.42,90.8,0
"2020-08-27 21:43:00+00",21.0,27.0,,87.9,-858,-341,68,1005.42,90.7,0
"2020-08-27 21:48:00+00",26.3,28.3,,87.9,-1074,-381,24,1005.45,90.5,0
"2020-08-27 21:53:00+00",21.4,25.4,,87.5,-867,-382,39,1005.52,90.3,0
"2020-08-27 21:58:00+00",22.7,26.7,,87.6,-922,-370,35,1005.66,90.1,0
"2020-08-27 22:03:00+00",19.0,23.0,,86.9,-794,-248,46,1005.85,89.6,0
"2020-08-27 22:08:00+00",19.6,23.6,,86.9,-821,-241,52,1005.88,89.2,0
"2020-08-27 22:13:00+00",18.0,20.0,,86.8,-738,-247,36,1005.91,89,0
"2020-08-27 22:18:00+00",18.0,22.0,,86.8,-739,-254,43,1005.99,88.9,0
"2020-08-27 22:23:00+00",16.7,19.7,,86.8,-687,-309,36,1005.98,88.7,0
"2020-08-27 22:28:00+00",17.4,21.4,,86.6,-717,-233,25,1005.88,88.7,0
"2020-08-27 22:33:00+00",17.7,19.7,,86.8,-722,-266,28,1005.94,88.7,0
"2020-08-27 22:38:00+00",15.9,20.9,,86.8,-652,-245,33,1006.1,88.6,0
"2020-08-27 22:43:00+00",16.6,19.6,,86.5,-698,-311,24,1006.13,88.5,0
"2020-08-27 22:48:00+00",16.0,19.0,,86.2,-672,-273,29,1006.21,88.3,0
"2020-08-27 22:53:00+00",17.6,19.6,,86.2,-721,-261,16,1006.36,87.9,0
"2020-08-27 22:58:00+00",15.8,18.8,,86.2,-678,-284,-18,1006.45,87.6,0
"2020-08-27 23:03:00+00",16.3,19.3,,85.9,-669,-265,-19,1006.49,87.1,0
"2020-08-27 23:08:00+00",15.6,18.6,,85.6,-663,-282,-47,1006.63,86.5,0
"2020-08-27 23:13:00+00",15.0,18.0,,85.7,-633,-310,-45,1006.65,86,0
"2020-08-27 23:18:00+00",14.4,16.4,,85.5,-607,-260,-28,1006.75,85.7,0
"2020-08-27 23:23:00+00",16.6,18.6,,85.7,-679,-304,-32,1006.71,85.3,0
"2020-08-27 23:28:00+00",16.5,19.5,,85.4,-694,-342,-25,1006.67,85,0
"2020-08-27 23:33:00+00",15.6,18.6,,85.3,-646,-298,-22,1006.72,84.7,0
"2020-08-27 23:38:00+00",16.9,19.9,,85.1,-712,-309,17,1006.83,84.5,0
"2020-08-27 23:43:00+00",15.6,17.6,,84.9,-655,-361,21,1006.46,84.3,0
"2020-08-27 23:48:00+00",14.0,17.0,,84.8,-595,-315,25,1006.44,84.1,0
"2020-08-27 23:53:00+00",14.7,16.7,,84.8,-629,-359,16,1006.34,83.9,0
"2020-08-27 23:58:00+00",14.6,16.6,,84.6,-613,-291,23,1006.29,83.8,0
